TimeEDT,TemperatureF,Dew PointF,Humidity,Sea Level PressureIn,VisibilityMPH,Wind Direction,Wind SpeedMPH,Gust SpeedMPH,PrecipitationIn,Events,Conditions,WindDirDegrees,DateUTC
12:55 AM,68.0,64.6,89,30.03,10.0,ENE,8.1,-,N/A,,Clear,60,2012-10-24 04:55:00
1:55 AM,66.9,64.6,92,30.01,10.0,ENE,6.9,-,N/A,,Clear,60,2012-10-24 05:55:00
2:55 AM,66.6,64.0,92,30.00,10.0,ENE,5.8,-,N/A,,Clear,60,2012-10-24 06:55:00
3:55 AM,66.7,65.8,97,29.98,10.0,ENE,6.9,-,N/A,,Clear,60,2012-10-24 07:55:00
4:55 AM,68.0,66.9,96,29.98,10.0,ENE,8.1,-,N/A,,Mostly Cloudy,60,2012-10-24 08:55:00
5:55 AM,70.0,67.8,93,29.99,10.0,East,10.4,-,N/A,,Overcast,80,2012-10-24 09:55:00
6:10 AM,69.8,68.0,94,29.99,10.0,East,11.5,-,N/A,Rain,Light Rain,80,2012-10-24 10:10:00
6:21 AM,69.8,68.0,94,29.99,10.0,East,15.0,-,N/A,,Overcast,80,2012-10-24 10:21:00
6:55 AM,71.1,69.3,94,30.01,9.0,East,12.7,-,0.00,,Light Drizzle,90,2012-10-24 10:55:00
7:20 AM,69.8,69.8,100,30.00,10.0,East,10.4,-,N/A,,Overcast,80,2012-10-24 11:20:00
7:55 AM,70.3,70.0,99,30.01,10.0,ENE,5.8,-,0.00,,Overcast,70,2012-10-24 11:55:00
8:55 AM,72.0,70.5,95,30.03,10.0,ENE,12.7,-,N/A,,Overcast,60,2012-10-24 12:55:00
9:55 AM,74.7,71.6,90,30.03,10.0,ENE,13.8,-,N/A,,Mostly Cloudy,70,2012-10-24 13:55:00
10:55 AM,77.0,72.5,86,30.02,10.0,ENE,15.0,-,N/A,,Overcast,70,2012-10-24 14:55:00
11:55 AM,81.5,72.9,75,30.01,10.0,East,13.8,-,N/A,,Overcast,90,2012-10-24 15:55:00
12:55 PM,85.5,71.4,63,29.99,10.0,East,17.3,-,N/A,,Clear,80,2012-10-24 16:55:00
1:55 PM,86.9,70.3,58,29.95,10.0,East,16.1,21.9,N/A,,Partly Cloudy,100,2012-10-24 17:55:00
2:55 PM,86.7,69.1,56,29.93,10.0,East,13.8,26.5,N/A,,Scattered Clouds,100,2012-10-24 18:55:00
3:55 PM,87.6,66.7,50,29.92,10.0,East,16.1,-,N/A,,Clear,100,2012-10-24 19:55:00
4:55 PM,87.1,68.0,53,29.91,10.0,East,17.3,-,N/A,,Scattered Clouds,80,2012-10-24 20:55:00
5:55 PM,85.1,66.0,53,29.91,10.0,East,16.1,-,N/A,,Clear,80,2012-10-24 21:55:00
6:55 PM,81.0,67.8,64,29.92,10.0,East,10.4,-,N/A,,Partly Cloudy,90,2012-10-24 22:55:00
7:55 PM,78.4,67.6,69,29.94,10.0,East,10.4,-,N/A,,Clear,90,2012-10-24 23:55:00
8:55 PM,77.4,68.5,74,29.96,10.0,East,15.0,-,N/A,,Clear,80,2012-10-25 00:55:00
9:55 PM,75.0,68.9,81,29.96,10.0,ENE,11.5,-,N/A,,Clear,70,2012-10-25 01:55:00
10:55 PM,72.9,68.9,87,29.97,10.0,ENE,8.1,-,N/A,,Clear,60,2012-10-25 02:55:00
11:55 PM,72.1,69.1,90,29.95,10.0,NE,9.2,-,N/A,,Clear,50,2012-10-25 03:55:00